{"data":{"norad_id":54169,"intl_designator":"2022-141N","name":"STARLINK-5282","alt_names":[],"object_type":"PAYLOAD","status":"ACTIVE","operator":null,"country":"US","launch_date":"2022-10-28","launch_site_code":"AFWTR","launch_vehicle":null,"mission":null,"orbit_class":"UNKNOWN","rcs_meters":null,"size_class":null,"mass_kg":null,"dimensions":null,"purposes":["comms"],"wikipedia_slug":null,"has_3d_model":false,"image_url":null,"decayed_at":null,"tle_current":{"epoch":"2026-05-25T01:28:22.317024Z","epoch_age_seconds":65949,"freshness":"FRESH","line1":"1 54169U 22141N   26145.06136941 -.00001195  00000+0 -56975-4 0  9996","line2":"2 54169  53.2145  20.8224 0001515  88.1413 271.9753 15.08846336197399","mean_motion":15.08846336,"eccentricity":0.0001515,"inclination_deg":53.2145,"raan_deg":20.8224,"arg_perigee_deg":88.1413,"mean_anomaly_deg":271.9753,"bstar":-5.6975e-5,"rev_number":19739,"period_min":95.437153913068,"perigee_km":538.67596646973,"apogee_km":540.77207835953,"semimajor_km":6917.8610224146,"source":"CELESTRAK","updated_at":"2026-05-25T13:38:17.661750Z"}}}